OBJECT G, 59779

Orbit data source: Space-Track

You're viewing an Uncataloged Satellite

Recently launched and/or uncataloged satellites may have evolving metadata. Metadata may include but not limited to: Owner, Maufacturer, Bus, Motor, and Mission.

OBJECT G, 59779 is a satellite owned by Byuro 1440 (CIS) in SSO that was launched on Thu, 16 May 2024 UTC via a SOYUZ-2-1B launch vehicle from the Plesetsk Missile And Space Complex (PKMTR). Unknown objects in Earth's orbit typically refer to objects detected orbiting the Earth but have not yet been identified or cataloged. These objects could be anything from previously untracked satellites, spent rocket stages, debris from satellite collisions, or even natural meteoroids temporarily captured by Earth's gravity.

Loading next visibility...
Identifier
59779, 2024-092G
Orbit
SSO
Country
Flag of CISCIS
Related business
Manufacturer
Byuro 1440
Mission
Operational Commercial Communications
Bus & Motor
RASSVET-2, Unknown motor
Mass
120 kg wet, 120 kg dry
Launch date (UTC)
2024-05-16 (2 years ago)
Launch vehicle
SOYUZ-2-1B
Launch site
Plesetsk Missile And Space Complex (PKMTR)
Object type
Unknown
Shape & HBR
Box + 2 Pan, 2.5 m
Radar Cross Section
1.622 m², Large (>1 m²)

Expand to show TLE details & history
Last TLE update: 6 hours ago

TLE from 6 hours ago
0 OBJECT G
1 59779U 24092G   26125.52811745  .00000201  00000-0  91794-4 0  9990
2 59779  98.6641 244.6261 0011299 339.0821  20.9899 14.31829613102790
Epoch: 2026-05-05T12:40Z
TLE epoch observation values (Epoch: 2026-05-05T12:40:29.347Z)
Latitude
0.00002°
Longitude
-168.89785°
Altitude
780.996 km
Speed
7.467 km/s
True Right ascension
16h 18m 30s
True Declination
0° 00' 00"
Sunlit
Object was in full shadow at epoch
Visualization orbit readout
Latitude
Unknown
Longitude
Unknown
Altitude
Unknown
Speed
Unknown
Apparent Right ascension
Unknown
Apparent Declination
Unknown
Sunlit
N/A
Visualization observer readout
Local Sidereal Time
02:43:20
Azimuth
Unknown
Elevation
Unknown
Doppler factor
Unknown
Orbital elements
Apogee altitude
790.853 km
Perigee altitude
774.671 km
Semi-major axis
7,160.899 km
Eccentricity
0.00113
Inclination
98.6641°
RAAN
244.6261°
Arg. of periapsis
339.0821°
True anomaly
21.03634°
Mean anomaly
20.9899°
Eccentric anomaly
21.01311°
Mean motion
3.58172 °/min
Orbital period
100.51 mins
BSTAR
0.000091794
Loading maneuver chart data...
Computing Atmospheric mass density...
Loading historical data...
Loading historical data...
Loading historical data...
Loading historical data...
Loading historical data...
Loading historical data...
Loading historical data...

Documentation

Showing up to 5 results
|